Voltar ao catálogo

FENGYUN 1C DEB

AtivoPO
NORAD 32110·DEBRIS·🇨🇳 China

Lançado May 10, 1999 de Taiyuan Satellite Launch Center

Loading…

Próximas Passagens (próximas 24 horas)

TLE

AtualizadoSource: Space-Track

Época: Sep 14, 2026, 07:13 UTC

1 32110U 99025CRC 26257.30118104  .00001863  00000-0  72836-3 0  9999
2 32110  99.5461  97.9645 0032356 303.1558 234.6077 14.30687181683260

Acompanhe FENGYUN 1C DEB em tempo real com AllMySat

Download on the App Store